星链-31575 (STARLINK-31575 )

导读

STARLINK-31575是美国SpaceX公司星链(Starlink)项目卫星,于2024年4月10日发射入轨,属于星链低轨互联网星座的组成部分。该卫星运行在近地轨道,为全球提供高速低延迟互联网服务,重点覆盖偏远地区,缩小数字鸿沟,同时可为军事、航空等领域提供通信支持,是SpaceX大规模卫星互联网部署中的一环。

Basic Information
目录编号:
59471
目录名称:
STARLINK-31575
国际标识:
2024-068S
轨道中心:
EARTH
卫星名称:
星链-31575
卫星全名:
星链-31575 (STARLINK-31575 )
卫星状态:
在轨 (已飞行877 天)
发射日期:
2024-04-10 UTC
国别 :
美国 (US)
星等 :
--
Orbit Information
数据来源 国际轨道数据 AOE轨道数据
星历时间 2026-09-04T08:00:47+0800
13小时前
查看轨道信息
2026-08-29T22:00:00+0800
5天前
查看轨道信息
半长轴 6861.192km 6861.179km
偏心率 0.0001165 0.0001298
轨道倾角 43.004° 43.002°
近地点辐角 269.651° 261.077°
升交点赤经 104.001° 134.601°
平近点角 90.421° 153.342°
近地点 482.255km 482.151km
远地点 483.855km 483.933km
周期 94.267分钟 94.267分钟
每日圈数 15.275782 15.275824
Detailed Information
固有亮度:
5
最大亮度:
1.5
卫星平台:
Starlink v2.0 mini
覆盖范围:
全球
运营商:
太空探索技术公司
运营商所在国:
美国
制造商(研发单位):
太空探索技术公司
制造商所在国:
美国
使用方式:
暂无
Satellite Introduction
星链(Starlink)计划是由太空探索技术公司(SpaceX)提出的一个巨型低轨卫星互联网星座项目,计划在2019年至2024年间在太空搭建由约1.2万颗卫星组成的“星链”网络,其中1584颗将部署在地球上空550千米处的近地轨道,并从2020年开始工作。该卫星仍在工作。
2D Orbit Map
3D Orbit Map
Orbit Altitude Analysis Chart
Orbit Inclination Analysis Chart
Orbit Comprehensive Analysis Chart
View Comprehensive Chart
Conjunction Data List
Event ID Objects TCA Miss Dist (km) Collision Risk Probability Collision Risk Index (CRI) Action
CDM_260905-121905-947106-646321
2026-09-05T
12:19:50+0000
0.235 km
中距离
5.346606E-4 高风险 0.9
CDM_260905-163305-947106-340321
2026-09-05T
16:33:04+0000
0.234 km
中距离
5.034278E-4 高风险 0.89
CDM_260906-074803-787505-947121
2026-09-06T
07:48:33+0000
0.391 km
远距离
3.30291E-4 高风险 0.85
CDM_260905-233605-947106-340321
2026-09-05T
23:36:45+0000
0.912 km
远距离
2.060229E-5 中风险 0.61
CDM_260906-014005-947106-646321
2026-09-06T
01:40:09+0000
1.250 km
极远距离
7.883514E-6 低风险 0.53
CDM_260906-031405-947106-646321
2026-09-06T
03:14:18+0000
1.597 km
极远距离
3.534976E-6 低风险 0.46
CDM_260905-104505-947106-646321
2026-09-05T
10:45:41+0000
1.851 km
极远距离
2.310208E-6 低风险 0.42
CDM_260905-135305-947106-646321
2026-09-05T
13:53:59+0000
2.090 km
极远距离
1.707793E-6 低风险 0.4
CDM_260906-011005-947106-340321
2026-09-06T
01:10:54+0000
2.935 km
极远距离
8.582297E-7 极低风险 0.34